This is the latest recevied weather packets stored in our database for station/object CA3DPI. If no packets are shown the sender has not sent any weather packets the latest 10 day(s).
| Time | Temp. | Humidity | Pressure | Rain* | Wind** | Luminosity | Snow |
|---|---|---|---|---|---|---|---|
| 1777782416 | 15.56° C | 45% | 1020.2 hPa | - | - | - | - |
| 1777781816 | 15.56° C | 45% | 1020.4 hPa | - | - | - | - |
| 1777781216 | 16.11° C | 44% | 1020.4 hPa | - | - | - | - |
| 1777780616 | 16.67° C | 44% | 1020.4 hPa | - | - | - | - |
| 1777780015 | 16.67° C | 43% | 1020.4 hPa | - | - | - | - |
| 1777779415 | 16.67° C | 44% | 1020.4 hPa | - | - | - | - |
| 1777778815 | 16.67° C | 44% | 1020.4 hPa | - | - | - | - |
| 1777778215 | 16.67° C | 44% | 1020.2 hPa | - | - | - | - |
| 1777777615 | 16.67° C | 44% | 1020 hPa | - | - | - | - |
| 1777777015 | 17.22° C | 45% | 1020 hPa | - | - | - | - |
| 1777776414 | 17.22° C | 44% | 1019.8 hPa | - | - | - | - |
| 1777775951 | 17.22° C | 44% | 1019.8 hPa | - | - | - | - |
| 1777775820 | 17.22° C | 44% | 1019.8 hPa | - | - | - | - |
| 1777775220 | 17.22° C | 44% | 1019.7 hPa | - | - | - | - |
| 1777774620 | 17.22° C | 44% | 1019.7 hPa | - | - | - | - |
| 1777774020 | 17.78° C | 44% | 1019.6 hPa | - | - | - | - |
| 1777773419 | 17.78° C | 42% | 1019.8 hPa | - | - | - | - |
| 1777772819 | 18.33° C | 44% | 1019.7 hPa | - | - | - | - |
| 1777772219 | 18.33° C | 42% | 1019.6 hPa | - | - | - | - |
| 1777771619 | 18.89° C | 42% | 1019.5 hPa | - | - | - | - |
| 1777771019 | 19.44° C | 41% | 1019.5 hPa | - | - | - | - |
| 1777770419 | 19.44° C | 41% | 1019.6 hPa | - | - | - | - |
| 1777769818 | 19.44° C | 41% | 1019.6 hPa | - | - | - | - |
| 1777769218 | 20° C | 41% | 1019.4 hPa | - | - | - | - |
| 1777768689 | 20° C | 42% | 1019.5 hPa | - | - | - | - |
* Rain since midnight (hover to see other rain measurements)
** Current wind speed in m/s (hover to see current wind gust speed)